Location: Unspecified
(0.0000°N, 0.0000°E)
Time: 03:03:30
(UTC+00:00)

Envisat - Pass Details

Date: 04 August 2021
Orbit: 764 x 766 km, 98.2° (Epoch: 24 September)

Event Time Altitude Azimuth Distance (km) Brightness Sun altitude
Rises 04:43:44 0° 16° (NNE) 3,214 6.7 -19.6°
Reaches altitude 10° 04:46:02 10° 18° (NNE) 2,291 5.9 -19.1°
Maximum altitude 04:51:04 71° 102° (ESE) 805 3.2 -17.9°
Drops below altitude 10° 04:56:07 10° 186° (S) 2,299 5.2 -16.7°
Sets 04:58:25 0° 188° (S) 3,227 6.0 -16.2°
